Simultaneous Nadir Overpasses (SNOs) Predictions

Prediction of SNOs between GOES-16 and METOP-C Satellite Orbit:

Table of predicted SNOs for the next 14.0 days since TLE Epoch: 7/17/2022
Index Date Time (GOES-16) GOES-16 Lat,Lon METOP-C Lat,Lon Distance(km) Time Diff (sec)
1 07/17/2022 14:27:58 -0.01, -75.21 -0.26, -74.00 137.04 80
2 07/19/2022 02:44:17 0.01, -75.21 -0.76, -78.60 387.13 80
3 07/20/2022 02:26:18 0.01, -75.22 0.36, -73.61 183.06 80
4 07/21/2022 14:42:30 -0.00, -75.25 0.65, -78.18 333.63 80
5 07/22/2022 14:24:30 0.00, -75.26 -0.48, -73.18 237.00 80
6 07/24/2022 02:43:29 -0.02, -75.26 -0.59, -77.77 285.62 80
7 07/25/2022 02:20:09 -0.01, -75.28 0.54, -72.78 284.83 80
8 07/26/2022 14:41:42 0.01, -75.32 0.47, -77.34 231.49 80
9 07/27/2022 14:18:22 0.00, -75.33 -0.65, -72.35 339.36 80
10 07/29/2022 02:40:01 -0.00, -75.35 -0.34, -76.95 182.63 80
11 07/30/2022 02:16:41 -0.00, -75.37 0.73, -71.95 388.64 80
